Theta_e
351 350 347 340 335 339 340 344 344 345 346 345 345 344 343 342 340 336 334 336 339 334 326 326 333 338 339 337 336 338 337 337 339 339 340 340 342 342 343 343 344 344 344 343 344 344 343 343 343 342 343 343 343 342 342 342 341 340 340 341 340 339 339 339 339 339 340 339 338 338 338 338 337 337 337 337 337 336 336 335 334 333 332 332 332
351 349 348 341 336 339 339 343 344 346 345 345 345 343 342 340 339 336 337 339 337 329 325 330 337 339 337 336 337 339 338 340 340 339 340 341 342 342 343 344 344 344 344 344 344 344 343 343 343 343 343 343 343 342 342 342 341 339 339 340 339 339 338 337 338 338 338 337 337 337 337 336 335 335 335 335 335 334 333 332 332 332 332 331 331
351 348 348 341 336 339 341 343 343 346 345 345 344 343 342 340 339 337 339 339 333 326 328 333 339 339 336 338 338 339 339 339 339 340 342 342 342 343 344 344 344 344 344 344 344 344 343 343 343 343 342 343 343 341 341 341 340 338 338 338 338 338 337 337 337 337 337 336 337 337 336 334 334 334 333 332 330 329 328 328 331 331 332 332 331
351 348 347 342 337 339 341 343 343 345 345 345 344 343 342 340 340 339 341 337 331 329 331 335 338 337 337 340 338 337 338 339 340 342 342 342 344 344 344 344 344 344 344 344 344 344 344 343 343 343 343 343 342 341 341 340 339 338 338 338 337 337 336 336 336 336 336 335 336 337 336 335 334 334 334 331 328 329 329 330 331 331 332 333 333
351 348 347 344 342 341 340 342 342 344 344 344 343 342 342 341 341 340 340 336 333 334 334 335 337 337 339 341 338 337 338 341 342 343 342 343 344 344 344 344 344 344 345 344 344 344 343 344 343 343 343 343 342 341 341 341 340 338 338 338 337 337 336 333 333 334 335 335 336 336 335 334 334 334 334 333 331 332 332 331 332 332 333 333 332
350 348 346 344 345 343 340 341 341 342 343 342 343 341 341 341 341 340 338 337 337 336 335 336 338 337 340 341 340 338 338 341 341 342 342 343 344 344 345 344 344 344 344 344 344 344 344 344 343 343 343 343 342 341 340 340 339 338 338 338 338 337 336 332 330 332 334 334 336 335 331 333 333 334 334 333 333 333 333 333 333 334 334 333 332
350 347 345 344 345 343 338 339 340 341 341 341 341 341 341 341 340 338 336 337 336 335 335 337 338 337 339 340 341 340 339 341 340 342 342 342 344 344 345 344 344 344 344 344 344 344 343 343 342 340 338 338 339 338 337 336 334 334 334 335 337 337 336 332 330 333 334 336 336 333 332 333 333 334 333 333 333 332 332 333 333 333 332 332 331
349 346 345 344 345 341 336 336 337 338 339 339 340 340 340 339 338 336 335 336 334 334 336 337 337 337 337 339 341 340 340 340 340 342 342 342 342 343 344 344 344 343 343 343 343 343 343 343 342 338 334 334 334 332 330 330 329 328 328 329 331 332 330 328 329 331 332 333 332 331 332 333 333 332 331 331 331 329 329 330 331 332 331 331 331
348 347 345 345 345 340 334 334 334 335 337 338 338 338 337 337 335 334 334 335 334 335 337 337 337 337 336 337 338 339 340 340 340 341 342 342 341 343 343 343 343 342 342 341 341 341 341 341 341 339 335 332 330 328 328 329 328 327 324 323 324 325 325 326 330 331 331 331 331 332 331 331 331 331 331 332 332 331 331 330 330 331 330 329 329
348 347 346 346 344 338 334 333 332 332 334 336 336 334 332 333 333 333 333 334 335 337 338 338 338 338 337 337 337 338 340 340 340 340 341 342 342 343 342 343 342 341 340 339 339 338 338 339 338 338 336 333 330 330 330 330 329 326 320 320 325 328 330 331 333 332 333 333 332 332 331 332 332 332 332 332 331 331 332 331 331 330 329 326 326
348 347 347 347 342 335 332 332 331 331 332 332 332 330 329 330 331 334 334 335 337 337 338 338 338 338 337 337 337 338 339 340 340 340 341 341 341 342 342 342 340 340 337 335 337 336 336 337 336 336 334 332 331 331 330 330 329 324 321 326 330 332 332 333 333 332 331 331 331 332 332 333 333 333 332 332 332 331 332 332 332 332 330 328 326
347 348 348 345 340 333 332 331 330 330 328 329 329 328 329 330 333 334 334 335 337 337 338 338 338 338 338 337 338 338 338 339 339 340 340 340 341 341 340 340 339 339 334 331 333 333 333 333 332 332 332 331 330 331 330 330 328 323 325 331 331 331 332 333 335 332 333 333 333 334 334 334 334 334 334 334 334 334 334 334 333 332 331 329 328
348 348 347 343 339 334 331 330 328 327 327 327 328 328 330 333 334 333 333 335 334 335 336 336 336 336 336 335 336 337 337 339 339 339 339 340 340 340 340 338 339 336 331 331 331 330 330 329 330 330 331 332 331 330 330 329 326 323 327 331 331 332 333 334 334 333 335 335 335 336 335 335 335 335 335 335 334 334 334 333 332 330 329 329 329
349 349 347 343 341 336 329 328 327 326 326 327 328 330 332 334 334 332 334 337 335 336 336 335 336 335 334 334 336 336 337 338 339 339 338 339 339 339 339 338 338 334 330 331 331 330 329 329 330 331 331 331 331 330 329 326 323 324 330 332 332 333 333 334 334 334 335 335 336 335 335 334 334 334 334 333 333 333 332 332 331 329 329 329 329
349 349 346 343 342 338 331 328 327 327 328 329 332 334 335 334 333 334 336 338 338 338 337 337 338 338 337 337 336 336 336 337 338 339 338 338 338 339 338 338 336 330 329 331 332 330 329 329 330 331 330 329 329 328 327 324 321 325 331 331 331 332 334 335 333 334 334 335 335 334 334 333 332 332 332 332 331 331 331 330 330 329 328 328 329
350 348 346 344 342 340 336 332 331 330 331 333 335 337 336 335 335 336 337 338 338 337 338 338 339 340 339 338 336 336 335 335 336 337 338 338 337 338 338 338 334 329 329 330 332 331 330 330 330 330 330 329 328 326 325 324 321 325 331 331 332 332 333 335 333 334 334 334 334 333 333 331 331 331 331 331 330 330 329 329 329 329 328 328 329
350 348 347 345 343 342 339 338 336 333 334 336 337 338 337 336 336 338 337 337 337 336 338 339 339 339 339 339 339 338 336 335 333 333 336 338 337 337 338 338 332 329 329 329 331 332 331 331 330 330 330 329 327 324 322 322 321 324 330 331 332 333 334 335 335 335 334 334 334 333 332 331 330 330 330 330 330 329 329 328 328 328 328 328 328
349 347 347 345 345 344 342 341 338 337 337 337 337 338 337 336 336 338 337 336 336 336 338 339 339 339 339 339 339 338 337 335 331 327 331 337 337 336 338 337 332 329 328 328 331 332 332 331 331 330 329 328 326 321 319 320 320 322 329 332 332 334 334 335 334 334 334 335 334 334 332 330 330 330 330 329 329 329 328 328 328 327 328 328 328
349 348 348 346 346 344 344 342 340 340 340 339 338 338 337 336 336 337 338 336 336 336 338 339 339 339 338 338 337 337 337 334 331 326 326 331 333 336 338 337 332 329 329 327 330 332 332 331 331 330 330 328 324 319 317 319 319 321 329 332 333 334 334 334 333 333 335 335 334 333 331 329 330 330 329 329 328 328 328 328 327 327 327 327 327
349 349 348 347 346 345 345 343 342 341 341 341 339 338 337 337 337 337 339 337 336 336 337 339 338 338 337 336 335 337 337 333 332 330 326 325 329 335 335 335 331 329 329 327 329 332 332 332 331 330 329 326 321 316 316 318 319 324 331 334 335 336 335 335 333 333 334 334 333 331 329 329 330 329 329 329 328 328 327 327 326 327 327 327 327
349 349 348 348 347 346 345 343 343 343 342 341 340 340 336 335 336 337 339 338 337 335 335 337 337 336 336 335 334 338 339 334 334 334 331 326 329 335 334 333 331 328 328 327 328 331 332 332 331 330 329 325 319 316 315 316 319 327 333 334 335 336 336 334 332 332 333 333 332 329 328 329 329 329 328 328 327 327 326 326 326 327 327 326 326
348 349 348 347 348 347 345 343 343 343 343 341 340 340 334 334 336 334 336 337 337 335 334 336 337 337 336 335 337 341 341 339 338 337 335 331 328 331 331 332 330 327 327 327 328 331 332 332 331 330 329 325 325 324 320 316 320 330 333 334 336 335 335 335 333 333 334 333 331 328 328 328 328 328 328 328 327 327 327 326 327 326 326 326 325
347 349 348 346 346 346 345 344 343 342 343 342 341 339 335 336 338 335 335 335 335 335 337 339 339 338 337 338 340 342 342 341 340 338 338 337 330 327 328 329 328 326 327 326 328 331 332 332 331 330 329 331 334 334 330 325 325 332 334 335 336 334 334 334 333 333 332 332 328 327 328 328 327 327 328 328 327 327 327 326 326 326 325 325 325
347 347 346 345 345 346 345 344 344 343 342 341 341 339 337 338 340 339 338 337 337 337 339 340 339 338 339 341 341 342 342 341 341 340 339 338 334 329 326 326 325 325 326 327 329 331 332 332 331 330 331 335 338 335 334 332 329 333 335 335 333 333 334 333 333 332 332 331 326 326 328 327 327 327 327 327 327 327 326 326 326 325 325 325 325
347 345 343 343 344 345 345 344 344 343 341 340 341 339 338 340 340 340 341 339 339 340 341 340 339 338 339 341 341 341 342 342 340 340 339 338 337 334 331 329 328 326 327 331 332 331 333 334 332 331 333 336 338 336 335 334 333 335 335 333 332 334 335 333 333 333 333 330 325 326 328 327 328 328 327 327 326 327 326 326 325 324 324 324 324
345 343 342 341 342 344 344 344 343 343 341 339 340 339 339 341 340 340 340 339 339 341 342 342 340 339 340 340 340 340 340 341 340 339 338 337 337 337 335 334 333 329 329 333 334 333 335 337 335 333 335 337 338 338 336 334 334 335 334 333 333 334 334 333 333 333 333 330 325 326 328 327 327 327 327 327 326 326 326 325 325 324 323 323 323
344 342 342 341 341 342 343 343 343 343 342 339 340 340 340 341 340 340 340 339 338 340 342 342 340 339 340 340 340 340 339 340 340 339 338 337 336 336 336 336 334 331 330 334 333 334 335 336 336 335 336 337 338 338 335 334 334 334 333 333 334 333 333 332 332 332 332 331 325 324 327 328 327 327 326 327 327 326 325 325 325 324 324 324 323
344 343 342 343 341 341 341 341 342 342 341 340 340 340 341 341 340 341 340 339 339 340 341 340 339 338 339 339 339 339 339 339 339 339 339 338 337 336 336 336 336 332 331 333 333 334 336 337 337 335 336 336 337 337 334 334 334 334 334 333 334 333 333 332 331 331 330 332 327 321 324 327 326 327 327 327 327 326 326 326 325 325 325 324 324
342 342 343 344 343 343 342 340 341 341 340 340 342 342 342 342 341 341 341 340 340 341 340 339 340 338 339 340 339 338 338 338 338 339 339 338 336 336 336 336 336 334 332 333 333 333 335 337 338 337 337 336 336 336 334 334 333 333 333 333 334 333 332 332 331 331 329 332 329 318 318 324 325 326 326 327 328 327 327 326 325 326 325 325 325
342 343 343 343 344 344 344 343 344 342 340 341 343 342 342 343 342 340 340 340 339 339 339 339 340 339 339 340 338 338 337 337 338 339 339 338 337 337 337 336 336 336 335 333 332 333 334 336 338 337 336 336 336 336 334 333 333 333 334 334 333 333 332 332 331 331 330 331 330 319 313 322 326 327 327 326 327 327 326 326 326 326 327 325 324
342 343 343 343 344 343 342 343 345 345 343 342 342 342 341 340 341 340 340 339 338 338 339 339 339 339 339 339 339 338 337 337 338 338 338 338 338 337 337 337 336 336 337 335 333 333 333 334 336 336 336 336 336 336 335 333 332 333 334 334 333 333 333 333 333 332 332 331 330 323 317 323 328 329 328 324 324 326 327 328 327 326 325 323 323
343 343 343 343 345 343 341 341 343 344 344 343 340 340 340 340 340 340 339 340 339 339 340 339 338 339 339 339 339 338 337 337 337 337 337 337 337 336 336 337 337 337 337 336 335 334 333 333 334 335 335 336 336 336 335 333 333 333 334 333 333 334 334 335 334 332 333 331 330 328 324 326 329 329 329 327 325 326 328 329 328 326 323 323 325
343 343 343 343 344 344 343 341 342 342 343 344 342 339 339 340 340 339 340 341 341 340 339 339 339 339 340 339 338 338 338 337 337 336 336 336 336 336 336 336 337 337 336 336 336 335 334 334 334 335 335 334 335 335 336 333 333 333 333 334 333 334 335 335 334 333 333 332 330 330 328 329 330 330 330 329 329 328 328 328 329 328 325 325 327
344 342 342 342 342 343 343 342 343 343 342 343 344 342 340 340 341 340 341 341 341 341 340 340 340 340 339 339 338 337 336 337 337 336 336 336 335 336 336 335 335 337 337 336 337 336 335 335 335 335 335 334 334 336 336 334 332 333 334 334 334 335 335 335 335 334 333 332 331 331 330 331 332 331 330 330 330 330 329 328 327 327 326 327 328
344 342 341 341 341 342 342 342 343 343 343 342 343 343 342 341 341 341 341 341 341 341 341 341 340 340 340 339 339 338 337 337 337 336 335 335 335 336 337 336 336 337 337 337 337 336 335 335 334 335 336 335 335 335 335 334 333 333 335 335 335 335 336 335 335 335 333 332 331 331 331 332 332 332 332 331 330 330 330 329 328 327 326 327 329
343 341 341 340 341 341 341 341 341 341 343 342 341 342 341 341 341 341 341 341 341 341 341 341 340 340 340 340 339 338 337 337 337 336 335 335 335 336 337 336 335 336 337 337 336 336 335 335 335 335 336 336 336 335 334 334 333 333 334 335 335 336 335 335 335 334 333 332 331 331 332 333 332 332 332 332 331 330 329 329 329 329 327 327 330
342 341 340 339 340 341 340 341 340 340 341 341 340 340 340 340 341 341 341 341 341 341 341 341 341 340 340 340 339 338 338 338 337 337 336 335 335 335 335 335 335 336 336 336 337 336 335 335 335 335 335 336 335 335 335 334 334 334 334 335 336 336 335 335 335 334 333 332 331 331 331 333 332 332 332 331 331 330 329 329 329 330 329 329 329
341 340 340 339 339 340 340 340 340 340 340 339 339 339 339 340 340 341 341 341 341 341 340 340 340 340 340 340 339 339 339 339 338 337 336 336 336 335 335 336 336 337 335 336 336 335 334 333 335 335 335 336 334 334 335 334 334 335 335 336 337 336 335 336 335 334 334 333 332 331 331 333 333 332 331 331 331 331 330 329 327 328 329 329 330
340 340 340 339 339 339 340 339 339 340 339 339 339 339 339 339 339 340 340 340 341 341 340 341 341 340 340 339 340 340 339 339 338 338 338 337 337 336 335 335 336 336 335 336 336 334 334 334 334 334 335 336 333 332 333 333 333 334 335 336 336 336 336 335 335 334 334 333 332 332 332 333 333 332 331 330 331 331 332 330 326 328 328 327 328
339 339 340 340 340 339 340 339 339 340 340 340 340 340 340 340 340 339 338 339 340 341 341 341 341 340 340 340 340 340 339 339 337 337 338 337 337 337 335 335 335 336 336 336 335 334 334 335 335 334 335 336 334 332 333 333 331 333 335 336 335 335 335 335 335 334 333 332 332 332 332 333 332 332 332 331 331 331 331 330 328 330 330 325 326
339 339 340 340 339 339 340 339 339 340 340 341 341 342 341 341 340 339 338 338 339 340 340 341 340 340 340 340 340 339 338 338 337 337 337 337 337 337 337 336 335 336 337 335 335 335 334 335 335 335 335 335 334 332 333 333 331 333 336 335 334 334 336 336 335 335 333 332 331 331 332 332 332 332 331 331 332 330 329 329 328 329 330 326 325
339 339 339 339 339 339 339 339 339 339 339 339 340 341 342 341 340 339 339 338 338 338 338 340 340 340 340 340 340 339 338 338 337 337 337 337 336 337 338 338 337 337 337 336 335 335 334 334 335 336 335 335 333 332 332 332 332 334 334 333 332 332 333 334 334 335 334 333 331 331 332 332 332 331 332 332 331 329 328 329 329 329 330 329 328
337 337 338 339 338 339 338 338 338 338 339 339 339 340 341 341 339 338 339 338 337 338 338 339 340 339 339 339 339 339 339 338 338 337 337 337 337 337 337 338 338 336 336 336 336 335 334 333 334 335 335 334 333 332 332 333 333 333 332 331 331 331 331 331 332 333 333 332 331 331 332 331 331 330 331 332 330 329 329 329 330 331 331 331 330
335 335 335 336 336 337 338 338 338 338 338 338 338 339 339 339 339 339 340 338 336 337 339 339 339 339 338 339 339 338 338 338 337 337 336 337 337 337 337 337 337 336 336 336 336 335 334 333 333 333 334 333 333 332 333 334 333 331 331 331 331 331 331 331 331 333 333 332 331 331 332 331 331 331 331 331 330 330 330 330 331 332 332 331 330
331 332 333 333 334 335 336 337 338 338 338 338 338 338 339 339 339 339 340 339 338 339 339 338 339 340 338 337 338 337 336 337 337 336 337 337 337 336 336 336 337 336 336 336 335 335 334 333 332 332 332 332 332 333 333 334 333 331 330 331 332 331 330 331 332 334 333 332 332 332 332 332 332 331 331 330 330 330 330 330 331 332 333 331 330
327 328 329 330 331 333 334 336 337 337 338 338 338 338 339 339 339 339 339 338 337 337 337 335 336 339 339 338 338 338 337 336 337 337 337 337 337 336 336 336 336 336 336 336 336 335 334 334 333 332 331 331 331 332 331 331 332 331 330 331 332 332 332 332 333 334 333 332 332 331 331 331 332 331 330 329 329 330 330 330 331 332 332 330 329
325 326 327 328 329 330 332 333 335 335 336 337 337 338 339 339 339 338 337 337 335 334 335 336 336 338 338 338 338 338 337 337 337 337 336 336 336 336 336 336 336 336 336 336 335 335 334 335 334 332 331 331 331 331 330 331 332 331 332 332 331 331 331 331 332 334 334 333 331 330 330 331 331 330 330 330 328 329 330 329 330 331 329 328 328
323 325 325 326 327 327 329 331 332 334 334 334 335 336 337 338 338 338 337 335 333 334 336 337 337 337 338 338 338 337 338 337 337 337 336 336 336 336 336 336 335 336 336 336 335 335 334 334 333 332 332 331 330 331 331 331 332 332 332 332 331 331 331 331 331 332 333 333 331 330 330 330 330 330 330 330 328 329 330 329 329 329 328 328 327
323 323 324 324 325 326 327 328 329 330 331 331 332 334 335 336 337 338 337 334 332 335 338 335 334 336 337 336 337 337 337 337 337 336 336 336 336 336 336 336 335 334 335 335 334 334 334 333 333 332 331 331 331 331 330 331 332 333 333 332 332 332 331 330 330 329 330 332 332 331 330 330 330 331 330 330 329 330 330 329 329 328 328 328 327
322 322 323 323 324 325 326 326 327 327 328 329 330 331 333 335 335 336 337 335 334 337 338 335 334 335 336 336 337 337 337 337 337 337 336 337 337 336 336 336 335 334 334 333 332 333 333 333 332 332 332 331 331 331 329 330 332 334 333 331 332 332 330 330 331 329 330 331 331 331 331 330 331 331 330 329 329 330 330 328 328 328 328 328 326
322 322 322 323 323 324 324 325 325 325 326 327 328 329 331 332 334 335 335 336 336 337 338 337 335 334 335 336 337 336 335 336 337 337 337 337 337 336 336 335 335 334 333 333 333 333 333 333 333 332 332 331 331 330 329 330 333 333 330 330 332 332 331 331 331 331 331 331 330 331 330 330 331 331 331 331 330 330 329 328 328 328 328 328 326
Wind_Speed
14 16 16 18 18 17 18 18 20 20 21 21 21 20 19 19 19 19 18 16 13 13 16 17 16 14 13 13 14 15 15 16 15 14 13 13 12 11 11 11 11 12 12 13 13 14 14 14 14 14 15 15 15 14 15 16 16 16 16 16 16 16 15 15 16 17 17 17 17 17 17 16 15 15 15 16 15 15 15 15 15 15 16 15 15
16 17 16 18 19 18 19 19 20 21 21 22 21 21 20 20 20 20 18 14 13 15 17 17 15 13 13 14 14 15 16 15 14 13 13 11 11 11 12 12 13 14 15 15 15 15 15 15 15 15 15 15 15 14 15 15 15 16 16 15 16 15 15 16 17 17 17 16 17 16 16 16 16 16 14 14 14 14 13 13 14 15 15 15 16
17 17 17 18 19 19 20 20 21 21 21 22 21 21 21 21 21 19 16 13 15 17 17 16 14 13 15 15 14 15 15 15 14 13 11 11 12 13 14 13 15 16 15 16 16 16 16 16 16 15 15 15 15 14 15 15 15 15 15 15 16 17 17 18 18 17 16 15 16 16 15 16 17 16 14 13 12 12 11 12 15 16 15 15 16
17 17 18 17 19 19 20 20 21 21 21 22 21 22 21 20 20 17 15 14 16 16 16 17 15 15 16 15 14 15 16 16 15 13 11 12 13 14 15 15 15 16 16 17 17 17 17 16 16 16 15 15 14 14 14 15 15 15 16 17 18 19 20 18 16 15 14 14 15 17 15 15 16 16 16 15 15 15 15 16 17 15 14 15 16
17 17 18 18 18 17 19 19 21 22 22 22 22 22 20 19 18 16 15 15 16 15 16 18 17 17 16 14 15 16 16 16 15 13 11 13 14 14 15 16 16 16 17 17 17 17 17 17 16 16 15 14 14 14 14 14 14 15 15 16 18 18 18 17 16 13 11 10 11 13 14 14 15 15 15 16 17 17 17 17 16 16 15 15 16
16 17 18 18 17 16 19 20 22 22 22 21 21 20 19 18 17 16 16 16 15 14 17 19 17 17 17 15 14 15 16 16 16 13 12 14 15 15 16 16 17 17 17 17 17 16 16 16 15 15 14 13 13 13 12 13 13 12 13 14 15 15 16 16 14 11 8 7 7 9 12 13 14 15 15 15 16 15 16 15 15 16 16 15 15
16 17 17 18 16 16 19 20 21 22 21 20 19 19 18 17 17 17 16 16 15 14 18 19 17 17 17 16 15 14 16 17 15 13 12 13 14 15 16 16 16 16 16 15 15 14 14 14 14 13 12 12 12 12 12 12 11 11 10 11 11 12 12 12 11 9 5 4 5 9 12 13 14 15 15 15 14 14 14 14 13 14 13 13 14
15 16 17 17 16 17 19 19 20 21 20 19 19 19 18 18 18 17 16 16 15 15 17 18 17 17 18 18 17 16 17 17 15 14 11 11 12 14 15 15 15 15 15 14 13 13 13 13 12 12 12 12 12 12 12 11 10 10 8 8 9 10 10 11 12 11 9 7 9 11 12 13 14 14 14 14 13 11 11 12 11 12 12 12 13
16 16 17 17 16 18 20 19 20 19 19 18 18 19 18 18 18 17 16 16 16 16 17 17 16 16 18 19 18 17 17 17 16 15 12 10 11 13 14 14 14 15 15 13 12 12 11 12 11 11 11 12 12 11 10 10 9 9 8 9 11 13 13 13 12 10 11 12 13 12 13 13 13 14 13 13 11 10 10 10 10 11 12 12 14
17 16 17 16 16 20 20 19 20 19 18 19 19 19 18 18 18 17 16 16 16 17 17 17 16 15 17 17 18 17 17 17 16 16 14 11 12 13 13 12 12 12 11 11 11 11 10 11 10 10 11 11 10 10 9 9 9 9 11 15 17 18 16 14 13 11 11 13 13 14 15 15 14 14 12 11 10 10 10 11 11 12 11 12 14
17 17 17 17 18 21 21 20 20 19 19 19 19 19 18 18 18 17 16 17 17 18 18 17 16 15 16 16 17 16 17 17 16 16 14 13 13 13 12 11 10 9 9 10 11 11 10 10 10 10 10 10 10 9 8 8 8 10 16 19 18 16 14 12 11 10 12 13 14 15 15 15 15 14 13 12 11 11 12 12 12 12 12 12 13
16 18 18 19 20 21 20 20 20 20 20 19 19 19 18 18 18 17 17 18 18 18 18 17 17 16 16 16 16 16 17 16 16 16 14 14 13 12 11 10 9 8 9 11 12 12 11 10 11 10 10 9 9 9 8 8 8 12 17 17 14 12 10 9 8 10 13 13 14 15 15 15 15 14 13 13 13 13 13 12 11 11 12 13 14
16 19 20 20 19 20 21 20 21 20 20 19 19 19 18 18 17 17 18 18 18 19 18 18 18 17 16 17 18 16 16 15 16 17 15 14 13 11 10 8 7 8 10 11 12 12 12 11 11 11 10 9 8 8 8 8 8 13 17 16 14 12 12 10 9 11 12 13 14 14 15 15 14 13 13 12 12 12 11 10 9 9 12 13 13
18 20 20 20 19 20 21 20 20 20 19 19 19 19 18 18 17 18 19 18 18 19 18 17 17 16 15 16 18 17 15 15 16 16 16 14 12 11 9 7 7 9 11 11 12 12 12 11 11 10 10 9 8 8 7 8 10 15 17 15 15 14 14 11 10 12 12 13 13 13 13 13 13 12 11 11 10 10 9 9 8 9 11 12 12
19 20 19 20 20 19 20 20 20 19 19 18 18 18 18 17 17 18 19 19 19 19 18 18 17 15 15 16 18 18 16 14 14 15 14 13 12 10 8 6 8 11 11 11 11 11 11 10 10 10 9 9 8 7 7 8 11 16 16 14 13 11 10 8 8 11 11 12 12 12 12 12 12 10 10 10 10 9 8 8 8 9 11 11 11
18 19 19 20 21 20 19 19 19 19 18 18 18 17 17 17 17 18 19 20 20 19 19 18 18 17 16 16 17 17 15 14 13 13 13 13 12 9 8 7 10 12 11 11 11 10 10 10 9 9 9 9 8 7 6 7 10 15 14 12 10 9 10 10 8 8 10 11 11 11 11 12 11 10 9 9 9 9 8 8 8 9 11 10 10
16 18 18 20 20 19 19 17 17 18 17 17 17 17 17 17 17 18 18 19 20 20 20 19 18 17 16 15 15 14 13 12 11 11 11 11 11 10 8 8 11 12 10 10 9 9 9 9 9 9 9 8 8 7 7 7 9 12 12 11 11 11 12 12 8 8 9 10 10 11 11 11 11 10 9 9 9 8 8 8 9 10 10 9 9
14 16 18 19 19 18 18 17 17 16 15 15 15 16 17 17 17 18 18 18 19 20 20 18 17 16 15 15 13 11 11 10 9 10 10 10 10 10 10 9 12 12 10 9 8 8 8 8 8 8 8 8 8 8 7 7 7 10 13 13 14 14 14 13 9 8 9 9 10 11 11 11 10 9 9 9 9 8 9 8 9 10 9 8 9
13 15 16 18 18 18 18 17 17 16 15 14 13 14 16 16 17 17 17 17 18 19 19 18 17 15 14 14 13 11 10 9 8 8 9 10 10 11 11 10 12 12 10 9 7 7 7 7 8 8 8 8 7 8 8 8 9 13 15 15 14 13 12 10 8 8 9 9 10 10 11 11 10 9 9 9 9 8 8 8 9 9 8 9 9
12 13 14 15 16 17 18 17 16 16 15 14 13 12 14 15 16 17 17 17 17 18 19 19 17 16 14 14 14 12 11 9 8 8 8 8 10 11 11 12 12 12 11 9 7 6 6 7 8 8 8 8 8 9 9 9 12 15 14 11 10 10 8 7 7 8 9 10 10 11 11 10 9 9 8 8 8 8 8 8 8 8 8 8 7
11 12 13 14 14 14 15 15 15 15 13 13 13 11 12 14 14 15 17 17 17 17 18 18 16 15 14 15 15 13 11 10 10 9 8 8 10 12 11 12 13 13 12 10 8 6 6 7 8 8 8 8 9 10 9 10 13 13 10 9 10 9 6 5 6 7 9 10 10 11 11 9 9 8 8 8 7 7 8 8 7 7 8 7 7
12 11 12 14 13 13 12 13 16 15 12 12 15 13 11 12 12 13 15 16 17 16 17 16 15 15 15 16 15 13 10 10 12 11 9 9 10 11 11 12 14 14 13 11 9 8 7 7 8 9 8 9 10 9 8 10 12 10 9 9 8 5 4 5 6 8 9 10 10 11 10 9 8 8 8 8 7 7 7 7 6 6 7 7 7
12 11 12 13 13 13 12 14 15 14 14 14 16 15 12 13 13 13 14 15 16 16 16 16 15 15 15 14 13 13 11 11 13 11 10 9 9 10 11 12 15 16 14 12 10 8 8 8 9 9 9 9 9 8 6 8 9 8 8 7 5 4 5 5 6 8 9 10 10 11 10 8 8 8 7 7 7 7 7 6 6 7 7 6 7
12 12 11 12 12 11 11 13 14 14 14 13 15 16 15 15 14 14 14 15 15 16 16 15 14 13 14 14 13 13 12 11 12 11 11 9 7 9 10 12 15 16 15 13 10 9 8 8 10 10 9 8 7 7 7 7 6 2 3 3 4 5 4 5 6 8 9 10 9 10 9 7 7 7 7 7 7 6 6 6 6 7 6 6 6
10 11 11 12 12 11 11 11 13 13 12 12 12 15 17 17 16 15 13 15 16 15 13 12 12 13 14 15 13 12 11 11 12 11 12 10 8 9 10 12 14 16 15 12 11 10 10 10 11 12 9 7 7 7 7 7 5 3 1 3 5 4 4 5 7 8 9 9 8 9 9 8 7 7 7 7 6 6 6 6 6 6 6 6 7
8 10 11 12 12 11 10 9 11 12 10 10 10 12 16 16 16 16 13 15 16 15 13 11 12 13 13 14 12 11 10 10 11 12 12 11 11 11 10 12 13 16 16 12 12 12 12 12 12 13 11 8 8 7 7 6 5 5 4 5 5 4 5 6 6 7 8 8 8 10 10 8 7 7 7 7 6 6 6 6 6 6 7 7 7
6 9 10 11 11 10 10 9 10 11 10 10 10 11 14 14 15 14 12 12 12 13 13 11 10 11 12 12 11 12 11 9 10 11 11 9 11 12 11 12 13 15 15 12 12 12 12 12 12 12 11 9 8 8 7 6 6 6 6 6 5 4 5 5 6 6 8 7 6 9 10 8 7 7 7 7 7 6 7 6 6 6 7 6 7
5 9 8 8 9 9 11 9 9 11 10 9 9 11 12 11 10 11 10 9 9 10 10 10 8 7 11 11 10 11 9 7 9 9 10 10 10 12 13 13 13 13 14 12 12 12 12 12 12 12 11 10 9 8 8 7 6 6 6 6 5 5 4 4 5 5 6 6 6 6 9 9 9 9 8 7 7 7 7 7 7 7 7 6 6
10 8 5 4 6 7 9 10 9 10 10 10 10 11 11 8 7 9 8 7 8 9 10 9 7 4 8 9 8 8 6 6 8 7 9 12 11 11 12 12 12 11 12 12 11 12 12 11 11 12 11 9 9 8 8 8 7 7 7 6 5 4 4 3 4 4 4 7 9 6 7 10 10 10 8 7 8 7 8 7 7 7 6 6 6
7 4 3 4 5 5 7 9 8 7 9 11 11 11 11 9 8 8 7 7 7 9 9 7 6 6 5 6 6 6 6 7 9 8 9 11 11 11 10 11 11 10 11 11 11 11 11 12 12 12 11 10 9 8 8 8 8 7 7 7 6 5 5 4 4 5 4 7 8 5 8 13 11 10 8 8 9 8 8 7 7 7 6 6 7
4 3 3 3 3 4 5 7 7 7 7 7 7 8 9 9 9 8 8 6 7 8 7 5 6 7 5 5 6 5 4 5 8 9 9 9 11 10 10 12 11 10 10 10 10 11 11 11 12 12 11 10 9 9 8 8 8 8 8 8 7 6 5 5 5 5 5 6 7 6 9 13 12 10 8 8 9 9 8 7 6 7 7 7 7
4 3 3 3 3 4 5 4 5 6 6 4 4 4 5 6 6 5 5 4 7 8 6 5 6 5 5 5 4 4 4 5 8 10 9 9 11 10 12 14 10 10 10 10 10 10 10 11 12 12 11 10 9 9 9 9 9 9 9 9 8 7 6 6 5 5 6 6 7 9 10 11 12 11 9 8 9 9 8 8 7 7 6 6 7
4 3 3 4 4 5 5 3 2 3 4 4 2 2 1 1 1 3 3 4 6 6 4 5 4 4 5 4 3 4 5 6 8 9 10 9 10 11 14 15 10 9 9 9 10 10 10 11 11 12 11 11 10 9 9 9 10 9 9 9 8 7 6 6 6 6 6 6 7 9 10 10 10 10 9 8 8 8 9 9 9 8 7 7 7
4 4 4 4 4 5 5 3 2 3 3 4 4 2 1 1 2 3 4 4 5 4 3 4 4 4 5 4 5 5 6 8 8 9 11 11 10 12 15 16 11 8 8 9 10 11 11 11 12 12 12 12 11 11 11 11 11 10 9 9 8 8 7 7 6 7 7 6 7 8 9 11 11 10 10 9 8 7 7 8 9 9 8 8 7
4 5 5 4 3 3 4 4 4 4 3 3 3 3 2 2 2 3 4 4 4 4 4 4 4 4 4 4 5 6 8 10 10 11 13 12 12 14 14 14 12 8 7 9 10 11 11 11 12 13 13 12 12 12 12 12 12 12 9 8 8 8 8 7 7 7 7 6 7 8 9 10 12 13 11 9 8 7 6 6 8 9 9 8 8
5 5 6 4 4 3 2 3 3 3 3 3 2 2 2 2 2 2 4 5 5 5 5 4 4 3 3 3 5 7 8 8 9 11 13 13 14 16 16 14 11 9 10 8 8 11 11 12 13 13 13 12 13 13 13 13 13 13 11 10 9 8 8 7 7 7 6 6 7 8 8 8 10 13 12 10 9 8 7 6 7 10 10 9 9
5 5 5 5 4 3 2 3 3 2 2 2 3 3 2 2 2 3 5 5 6 6 5 5 5 4 3 3 5 8 8 7 9 10 12 14 16 17 17 15 12 12 13 9 9 11 11 13 13 13 13 13 13 14 13 14 14 13 12 11 9 9 8 7 7 8 7 7 8 8 9 8 8 9 10 10 9 8 8 7 7 9 10 10 11
6 5 5 4 4 3 2 2 2 3 2 2 3 3 3 3 2 3 6 7 7 7 6 6 6 5 5 5 6 8 8 9 10 10 12 14 15 16 17 15 14 14 15 13 13 13 13 14 13 14 14 12 14 15 15 14 13 13 12 11 10 9 8 7 8 8 7 8 9 9 9 9 8 8 10 10 9 9 8 9 8 8 9 10 12
5 5 5 4 3 3 2 2 2 3 3 3 3 3 4 3 3 3 6 8 8 8 7 8 8 7 7 6 7 8 9 10 11 11 11 13 14 16 17 17 16 15 16 15 15 15 14 14 13 14 14 12 12 14 17 15 14 14 13 11 10 9 8 8 9 9 10 10 9 10 10 9 9 9 10 10 9 9 8 9 9 9 9 9 11
5 5 6 5 4 3 2 1 2 3 3 4 4 4 4 4 4 5 8 9 8 8 8 8 10 9 8 8 8 9 9 10 12 12 12 12 12 15 16 17 17 15 16 17 16 15 15 16 16 15 16 15 11 12 17 17 16 15 12 10 10 9 8 9 10 11 11 11 10 11 11 10 10 10 10 9 9 9 8 9 9 10 11 8 9
6 6 7 6 5 4 3 1 0 2 3 4 4 5 6 5 5 6 9 10 9 9 8 9 11 11 10 10 10 10 11 11 12 12 12 12 12 13 14 15 16 15 17 20 19 17 17 18 18 16 16 19 16 14 17 17 16 12 8 9 10 9 8 9 11 12 12 12 13 14 12 11 11 11 11 9 9 10 10 10 9 11 13 10 8
8 6 8 7 5 4 3 3 2 0 1 3 4 6 6 5 5 5 7 10 9 9 10 10 10 12 12 11 12 12 12 13 12 13 13 13 13 14 13 14 15 16 17 18 18 19 20 19 19 17 16 19 20 16 17 17 16 13 9 7 8 8 9 12 12 13 15 17 16 14 12 12 12 12 11 9 10 11 10 10 9 10 11 10 10
14 12 9 7 5 4 2 2 2 0 1 2 3 3 4 5 6 5 6 8 9 10 11 10 10 13 14 13 13 13 13 13 13 14 15 14 14 15 14 14 16 18 18 16 16 19 21 20 20 19 17 18 19 17 18 19 16 11 9 6 6 5 7 12 14 14 18 19 16 14 13 13 14 13 11 9 10 10 9 9 9 9 10 10 12
15 15 14 11 9 7 3 1 1 1 1 2 4 4 4 4 5 6 7 8 10 11 11 11 11 13 14 13 13 14 14 14 15 16 16 16 15 16 16 15 16 19 19 17 18 19 21 22 23 22 20 18 19 19 20 21 17 10 6 4 4 5 4 8 13 14 17 19 16 14 14 14 14 12 10 9 10 10 9 9 8 9 9 9 10
14 13 13 12 11 10 8 5 3 3 3 4 5 5 5 4 5 6 6 7 9 9 9 10 11 13 15 14 12 14 15 14 15 16 16 16 16 16 16 16 17 18 18 18 18 19 20 22 24 25 24 22 20 19 18 22 21 17 12 5 2 5 4 5 9 10 16 19 15 14 15 14 13 12 10 9 11 10 9 9 9 9 9 8 8
13 12 11 11 11 10 11 9 6 6 5 5 6 6 5 5 6 6 6 6 7 7 8 10 12 13 14 13 12 13 14 15 15 15 15 16 16 16 16 16 17 18 19 18 18 19 19 20 24 27 26 24 21 17 17 20 22 22 20 13 7 4 2 4 5 3 10 16 14 15 16 13 13 15 13 11 13 12 10 9 9 9 9 9 9
12 11 11 11 11 11 11 11 8 7 8 8 9 8 7 6 6 7 7 7 7 10 11 13 14 13 12 13 13 14 14 15 16 16 15 15 16 16 15 16 18 18 17 17 18 20 20 19 24 28 27 25 23 20 19 19 19 21 22 19 12 6 4 5 4 1 3 10 13 16 16 15 14 16 15 12 13 12 10 9 10 10 10 9 10
11 11 11 11 11 11 11 10 9 8 9 11 11 10 10 8 7 8 9 9 11 13 13 15 15 13 12 13 14 14 14 15 16 16 16 16 17 16 15 17 18 18 16 17 17 18 19 20 23 26 27 28 26 25 23 19 16 18 20 20 15 9 8 7 7 5 1 3 8 11 14 17 17 17 16 13 12 10 10 10 10 11 10 10 10
11 11 10 10 10 10 10 10 9 9 9 10 11 11 12 11 10 8 8 10 12 12 12 13 14 13 14 14 13 13 13 14 16 16 16 16 17 16 16 17 19 19 17 18 18 16 17 20 23 25 27 29 27 26 25 21 18 15 15 17 15 12 12 10 8 6 4 5 5 5 11 15 15 16 18 15 12 10 11 11 11 12 12 11 11
10 10 10 10 10 9 9 10 10 9 9 10 10 11 12 12 11 11 10 10 11 10 10 11 13 14 15 14 13 13 13 14 16 16 16 17 17 17 17 17 18 18 18 17 17 16 18 20 22 25 26 27 25 26 26 21 17 15 15 16 16 14 12 10 9 9 9 8 6 5 10 14 12 14 19 19 14 12 13 12 13 13 13 12 12
10 10 10 10 9 9 9 10 10 10 10 10 10 10 11 11 11 12 13 12 11 10 11 11 12 13 14 14 13 14 14 14 15 16 16 17 18 17 17 17 17 18 17 17 16 16 18 19 21 25 27 26 23 23 25 21 14 15 18 17 15 15 14 11 11 13 11 8 6 6 10 16 13 12 17 19 17 16 16 15 15 14 13 14 13
Wind_Direction
132 133 145 162 157 154 153 153 157 157 158 158 157 156 155 154 152 150 147 145 140 129 123 125 119 111 117 125 118 111 110 106 105 104 101 99 100 103 103 102 106 108 109 112 110 109 108 105 103 101 98 95 95 96 97 97 100 102 101 98 97 97 95 95 95 95 94 93 92 90 86 81 80 78 79 85 89 85 79 74 68 66 65 66 70
135 136 145 156 156 152 153 154 153 153 154 153 153 153 153 152 151 149 147 145 137 128 128 127 118 117 126 127 118 114 112 109 110 107 103 100 102 105 103 103 107 109 109 109 108 107 106 104 103 102 100 97 96 98 97 96 99 104 103 100 99 100 99 96 96 96 96 96 95 90 85 81 78 79 82 87 90 87 85 81 73 68 65 66 71
133 137 142 153 154 149 151 151 150 150 150 149 150 150 151 151 150 149 147 142 134 131 131 126 117 124 125 119 116 118 118 117 114 107 103 101 102 104 104 105 108 110 110 109 107 106 106 104 103 103 101 100 99 99 98 97 99 100 101 101 101 103 99 94 92 92 92 92 91 85 79 76 73 71 72 74 76 75 74 77 73 71 71 71 73
133 139 141 149 150 148 150 150 150 148 147 146 146 148 149 148 148 147 145 139 134 133 132 125 121 126 123 117 117 119 120 117 112 107 104 102 103 106 107 108 109 110 109 108 106 105 105 104 103 103 102 101 101 101 99 97 99 100 100 101 103 104 99 94 90 90 91 88 89 86 80 76 71 67 67 66 69 71 72 76 77 78 79 80 80
134 138 140 142 142 147 149 150 152 150 148 145 145 147 147 147 146 145 142 137 135 134 133 127 125 129 124 119 115 115 118 116 114 112 106 103 106 108 110 110 111 110 108 106 105 105 104 104 103 102 101 101 102 102 100 98 99 102 104 106 108 107 100 92 87 86 89 85 81 79 75 78 74 69 71 69 71 74 76 77 77 78 77 79 81
133 137 140 141 137 144 151 152 153 152 150 146 146 146 146 146 144 144 140 136 136 136 137 133 133 134 127 125 120 114 116 116 117 117 109 106 108 110 111 112 112 110 108 106 104 104 103 103 102 102 103 102 103 104 102 100 97 98 103 108 113 114 105 92 86 88 91 81 69 68 71 78 78 75 75 73 74 76 79 79 74 73 71 73 75
130 136 142 143 139 147 154 155 155 155 152 149 147 147 146 144 144 144 139 138 139 140 140 137 138 139 134 133 130 122 121 119 119 118 113 108 110 112 112 113 112 110 107 104 103 103 103 103 103 105 106 104 105 105 103 101 99 98 100 107 114 117 112 98 90 87 80 76 76 79 81 83 83 79 76 76 75 73 79 82 79 74 70 71 73
131 140 145 143 144 155 158 157 156 156 153 151 148 147 145 143 144 142 140 142 143 143 140 139 140 141 139 137 134 129 127 126 124 120 116 110 112 115 114 113 111 109 106 102 101 101 103 104 105 107 107 106 106 106 105 100 96 97 102 115 122 120 116 108 98 83 70 82 89 86 88 88 87 83 78 79 74 66 71 77 80 77 74 76 76
136 140 143 138 143 158 160 159 158 156 153 150 148 146 145 145 145 144 146 147 146 144 141 141 141 141 140 138 138 136 133 132 130 129 125 115 115 118 115 114 114 115 113 110 109 108 110 108 107 110 110 111 111 109 103 97 93 90 97 113 117 111 108 106 95 78 76 87 87 83 88 90 88 85 81 82 79 74 78 78 78 78 80 78 78
135 138 142 136 145 160 161 160 160 158 154 151 150 148 148 148 148 149 150 150 147 146 145 144 145 145 143 143 145 143 140 140 139 136 134 129 125 124 118 113 116 122 123 115 111 114 114 111 113 114 115 119 117 110 101 94 88 84 98 108 110 105 101 95 76 64 78 85 84 80 83 87 86 87 88 87 89 94 96 88 80 79 81 74 76
137 140 139 138 152 162 162 163 161 160 157 154 153 152 152 152 153 153 152 150 148 147 147 146 148 147 144 146 149 151 148 146 145 143 141 140 136 134 129 124 124 125 124 111 107 111 112 112 116 117 117 121 117 107 98 93 85 91 108 111 110 106 103 94 77 77 89 90 91 90 87 87 88 91 95 94 94 94 91 86 84 83 77 65 71
139 139 137 141 155 162 163 164 162 161 160 159 157 157 157 156 156 155 154 150 149 149 149 151 152 149 148 151 154 157 152 147 149 150 149 146 144 145 143 140 138 127 123 115 111 115 114 113 113 112 112 113 111 103 96 93 87 102 114 113 110 107 101 90 86 94 94 94 96 95 93 92 93 96 96 95 93 90 88 87 88 85 75 65 70
134 134 136 141 149 159 163 163 163 163 163 163 161 161 159 158 157 156 153 149 149 148 147 151 151 150 154 159 162 160 154 151 152 156 158 154 150 149 149 147 146 133 124 115 113 118 115 112 110 107 106 106 105 100 97 93 91 109 117 112 105 96 82 72 87 98 93 94 95 94 95 95 99 99 95 94 95 91 89 87 82 78 77 75 75
133 132 136 139 145 158 164 162 163 164 164 164 163 162 160 159 158 156 152 149 148 145 146 147 146 145 145 152 161 163 159 155 154 160 165 164 160 158 156 147 147 139 123 110 111 117 116 114 110 105 102 100 100 95 95 93 100 116 117 110 105 98 84 70 86 97 94 96 96 97 97 101 106 102 96 95 97 95 91 85 76 73 78 80 79
133 134 136 139 145 156 163 165 165 164 163 164 162 160 159 160 158 156 154 153 151 150 151 148 148 149 147 149 157 165 165 162 159 163 167 170 168 164 159 145 144 139 120 108 110 115 118 117 110 104 97 91 91 91 93 96 108 121 122 118 116 108 89 73 89 95 97 100 97 98 98 104 110 104 101 100 101 98 91 83 74 72 79 82 81
132 135 136 142 148 153 160 164 165 164 163 163 160 158 159 160 159 158 157 157 156 155 154 151 156 161 159 156 158 163 165 166 168 170 170 172 173 164 159 155 149 139 121 111 110 115 121 120 113 102 92 85 84 84 91 97 112 127 131 125 117 100 87 85 98 100 101 102 98 99 99 106 112 108 108 105 101 99 92 85 81 80 82 84 82
134 136 139 145 149 153 157 161 165 163 162 163 161 160 161 162 162 163 161 160 160 159 156 157 163 167 166 162 159 160 160 163 169 178 174 169 175 168 161 164 157 143 124 115 111 116 124 124 118 104 92 84 81 82 90 99 115 132 132 121 108 95 91 92 96 96 96 101 101 101 103 113 118 110 108 105 102 100 97 90 89 89 86 88 86
137 138 143 147 150 154 154 157 161 159 160 162 162 164 165 165 167 167 167 165 164 163 160 163 166 167 167 163 159 156 156 156 159 176 173 166 173 171 167 169 162 148 131 123 117 120 127 130 121 108 97 86 84 86 94 103 113 129 127 114 103 93 88 88 91 93 94 97 99 100 104 115 116 107 106 106 103 99 95 91 92 93 91 89 83
137 141 145 149 152 153 153 156 157 157 159 158 163 170 169 169 171 172 173 170 169 168 166 169 170 168 167 164 162 157 155 153 151 162 170 172 172 172 173 173 167 153 141 134 129 129 133 136 127 113 101 90 88 91 100 106 113 122 118 107 97 87 80 83 95 97 93 92 95 100 106 111 109 105 105 103 101 98 98 97 94 93 93 90 86
138 146 148 150 153 155 155 153 154 159 160 156 156 168 175 175 176 177 178 176 174 173 173 176 175 173 170 171 170 159 156 157 153 152 162 172 167 172 179 177 172 159 150 147 141 144 146 145 138 124 107 98 94 97 103 107 119 119 109 97 81 63 58 77 91 91 91 91 95 104 108 110 107 106 105 103 103 102 101 100 96 94 94 93 94
146 156 157 152 155 159 154 149 155 160 155 152 152 164 180 178 179 182 183 182 181 178 178 181 179 177 175 178 176 164 159 157 157 156 158 168 169 178 184 178 174 166 159 156 153 156 160 157 149 135 118 107 100 98 101 110 122 115 97 82 66 52 58 87 92 94 99 98 101 110 113 112 110 109 109 108 104 102 101 102 105 105 101 97 94
155 165 166 160 159 158 154 152 159 162 152 151 156 165 178 174 180 186 186 188 187 183 180 181 179 180 180 181 180 172 165 160 162 164 161 169 182 191 191 182 174 169 166 163 163 164 170 170 158 146 130 111 101 101 100 109 116 104 87 76 63 65 88 91 96 100 101 102 107 114 115 115 115 111 110 110 106 104 104 105 108 105 100 98 95
160 169 167 163 159 159 160 155 157 165 158 159 161 161 169 176 185 186 186 192 191 190 188 185 180 180 180 180 187 182 172 168 166 164 162 168 188 198 197 190 175 169 168 166 168 172 175 177 169 157 134 110 111 127 128 123 118 91 66 62 76 116 110 102 103 99 99 104 116 125 120 118 120 115 113 114 112 110 109 108 106 104 101 98 97
163 167 166 160 157 161 165 160 162 167 160 165 166 159 169 178 189 190 188 194 194 198 199 192 181 178 179 181 194 189 177 175 166 157 159 168 187 197 199 193 179 171 166 163 169 176 177 180 179 164 143 134 148 159 149 149 150 105 25 56 118 133 119 113 105 100 104 109 123 129 120 116 119 119 120 117 116 115 112 113 110 109 106 98 96
152 157 160 158 160 159 160 164 164 165 161 164 164 164 177 182 190 194 191 196 199 200 203 202 187 181 187 190 197 193 184 180 166 158 161 169 180 187 193 186 179 173 163 164 174 176 178 182 183 176 172 180 180 169 155 159 171 177 154 125 134 139 122 108 104 105 106 112 127 129 124 126 125 122 124 125 124 121 119 120 117 116 113 103 97
144 156 156 152 156 154 156 166 160 165 162 154 158 171 185 192 193 194 196 200 206 205 204 211 197 187 194 197 200 197 192 182 174 177 173 173 182 187 194 185 179 176 168 174 180 178 183 184 186 188 193 195 180 169 164 163 166 162 149 142 147 146 129 116 116 115 111 118 135 138 136 135 135 137 139 138 136 134 131 127 125 123 120 115 107
147 141 139 140 147 148 154 168 163 165 158 153 164 172 186 199 196 196 206 204 213 219 213 218 208 194 195 199 206 203 199 188 181 192 185 183 195 195 202 193 180 180 180 184 181 182 190 187 189 197 200 194 180 174 170 167 168 162 156 157 158 149 143 138 135 132 125 131 148 146 143 143 142 145 149 146 145 147 141 136 135 129 124 121 117
56 81 98 124 139 146 155 162 157 154 149 156 165 171 188 198 196 204 218 213 216 226 224 229 228 203 190 195 209 206 206 203 189 195 194 198 211 206 209 202 182 180 185 187 186 187 195 192 193 202 204 193 181 176 171 170 172 169 165 166 167 159 154 145 139 143 140 151 168 152 149 158 157 153 154 153 152 151 146 142 140 133 129 127 125
33 55 75 102 114 131 148 146 145 149 150 164 167 174 187 185 196 212 221 225 220 227 233 233 236 204 177 185 206 204 209 223 209 208 211 210 210 206 216 214 189 182 186 189 195 193 196 198 197 204 204 194 182 177 175 174 175 178 176 173 171 159 149 145 149 164 161 155 160 155 150 156 159 156 157 161 157 154 150 147 143 136 135 136 135
38 48 68 76 91 118 140 134 141 152 155 173 174 171 180 181 192 207 213 224 228 236 244 235 231 223 192 188 196 192 192 209 212 216 223 221 213 205 220 226 199 185 190 194 201 199 199 200 202 206 203 195 185 179 180 179 184 186 180 174 169 163 160 168 173 177 169 145 148 165 162 153 150 152 157 166 163 156 153 147 144 142 145 150 146
63 75 78 79 100 121 133 131 143 152 154 177 185 170 178 189 191 197 201 211 219 225 243 243 228 231 226 208 188 166 162 184 206 213 220 225 224 217 224 232 209 189 195 196 203 205 203 203 205 208 204 196 186 182 184 186 195 191 181 177 173 175 175 180 188 185 181 160 146 160 169 157 150 152 154 157 154 150 150 150 151 154 162 162 145
78 100 91 103 116 103 113 134 151 155 152 165 204 191 186 194 195 207 204 214 222 217 231 224 212 228 227 217 193 149 161 192 205 211 221 231 236 239 243 241 213 194 203 197 201 206 205 206 206 208 205 199 190 185 190 194 201 195 186 184 177 179 183 186 194 193 190 180 161 159 167 163 156 159 158 148 144 144 151 160 163 169 174 159 140
86 105 99 112 118 106 116 128 131 153 151 144 191 230 231 245 319 290 232 227 236 232 233 200 191 225 210 206 192 167 191 208 205 200 211 228 242 254 261 255 225 197 203 198 200 202 206 207 202 206 206 205 197 188 194 199 205 205 196 188 181 183 186 187 194 200 195 188 181 170 167 170 164 166 170 162 154 154 163 169 168 174 178 163 150
104 123 123 118 108 109 126 130 137 175 181 162 180 211 261 298 306 283 243 235 240 242 238 197 195 214 201 201 195 203 216 209 207 202 206 218 229 241 256 262 250 216 201 199 201 201 206 208 202 205 207 207 202 193 198 201 204 210 204 192 189 188 186 191 197 202 201 194 191 181 174 176 170 170 178 181 176 168 176 182 179 183 183 172 164
105 119 122 120 112 106 120 137 165 179 191 197 193 192 191 204 226 249 253 257 252 249 244 218 213 209 200 195 192 217 217 201 205 204 207 216 223 230 240 255 263 256 230 211 206 207 208 211 207 204 204 205 205 200 202 204 206 208 203 196 196 192 190 195 196 200 203 198 196 190 188 183 173 173 177 182 189 188 192 198 197 200 195 178 171
96 112 121 126 124 118 123 139 164 172 190 216 217 215 213 214 238 267 270 270 269 267 263 252 243 228 213 199 208 234 227 208 208 204 209 217 223 229 231 239 248 253 253 239 224 223 215 213 211 207 204 202 204 204 204 207 209 208 203 200 200 195 195 195 195 203 200 197 203 195 194 193 180 180 183 185 192 197 196 201 206 207 203 188 176
107 113 123 135 136 134 147 137 152 182 204 227 240 249 253 256 269 280 278 277 277 279 281 278 271 257 242 216 221 237 237 222 212 210 216 217 221 229 233 234 229 232 241 238 235 236 230 224 214 211 211 204 207 206 205 211 209 207 206 202 201 198 199 196 196 205 200 202 209 197 195 201 190 188 198 196 192 198 199 196 198 199 202 197 188
112 114 123 143 157 150 154 152 172 191 198 232 253 259 259 261 267 273 277 279 277 281 286 286 282 271 256 239 231 234 233 225 217 213 216 221 227 230 233 233 228 233 234 229 227 226 239 243 221 215 219 212 213 205 199 212 211 206 207 203 200 198 197 195 200 204 202 209 212 202 199 200 195 195 208 212 200 197 199 194 194 196 199 198 193
117 128 137 150 171 164 164 181 207 202 197 219 235 246 249 245 251 261 269 273 276 277 280 283 283 275 263 253 246 245 241 236 232 222 217 224 229 230 234 233 230 236 235 231 228 221 238 251 228 219 224 221 226 213 201 214 223 212 205 202 201 200 196 196 208 208 206 214 213 209 207 198 198 200 209 222 209 192 192 193 192 195 200 199 195
116 129 137 144 155 151 155 189 230 226 213 216 222 234 239 231 232 239 246 253 267 275 277 279 278 275 272 268 261 256 255 251 243 237 232 227 224 231 239 237 232 235 235 231 228 223 230 234 224 220 222 219 223 222 210 216 229 220 200 196 204 207 204 205 214 213 212 218 214 213 213 202 200 205 208 214 206 196 199 203 198 193 197 199 194
125 136 130 127 133 133 125 104 253 247 225 225 229 234 236 229 223 236 248 254 266 276 274 273 274 275 276 273 270 266 263 259 252 244 241 235 231 234 237 236 233 232 235 233 230 228 225 224 223 217 217 215 211 215 215 215 225 223 195 192 205 206 208 217 220 217 216 217 216 217 215 205 203 207 207 204 204 205 202 205 204 192 189 191 192
82 101 118 126 132 132 122 107 107 134 252 239 239 243 249 248 242 247 260 267 274 277 274 271 271 273 272 265 263 264 262 258 250 245 245 243 239 237 234 234 232 230 233 234 232 231 228 225 224 214 208 213 211 209 210 213 220 218 198 195 208 212 223 234 233 227 222 215 215 220 214 204 205 208 206 202 210 210 199 197 197 188 184 183 182
52 53 63 85 95 104 125 122 111 51 336 328 289 272 272 272 269 267 265 274 279 273 268 267 265 269 269 264 263 261 260 257 251 251 253 251 247 244 241 235 234 235 233 232 234 231 228 225 224 217 208 209 212 210 206 210 218 210 199 207 209 213 231 233 232 233 229 221 218 223 218 207 208 210 204 201 211 209 196 189 185 183 184 181 179
46 40 37 40 40 42 45 33 12 303 290 297 308 314 310 288 271 264 258 263 266 261 262 263 258 263 267 265 266 264 262 262 259 258 257 256 253 250 248 240 235 236 234 233 236 232 227 225 224 220 214 211 213 214 208 207 210 197 190 223 203 201 226 221 220 226 229 227 226 227 222 212 214 216 204 202 208 203 194 186 178 178 179 182 180
39 35 32 28 24 22 17 11 358 325 293 267 285 304 307 293 268 260 256 255 257 256 264 271 262 262 265 262 260 262 263 261 261 260 257 257 258 256 254 247 238 233 229 231 234 232 228 225 222 219 219 218 215 216 213 209 210 202 198 216 194 208 233 207 207 218 222 224 225 224 220 214 219 222 209 204 207 199 193 185 176 175 174 174 167
31 28 28 25 21 19 10 3 353 337 328 304 299 302 294 279 263 258 255 256 267 269 267 271 266 262 265 265 259 259 259 255 255 256 257 259 260 258 254 248 244 236 227 227 231 229 226 221 219 220 221 221 217 215 216 215 216 212 212 218 207 195 179 169 188 212 218 221 224 225 222 217 221 222 210 207 213 203 189 184 178 174 171 167 161
27 24 26 23 20 19 10 4 355 343 340 334 328 319 302 277 260 260 259 256 268 276 267 260 262 261 262 265 259 257 257 254 251 251 254 258 255 253 250 247 247 242 231 226 227 227 227 224 224 225 223 219 216 213 213 213 212 213 218 219 210 194 165 167 189 194 220 225 226 226 221 213 216 219 212 212 220 204 181 182 182 175 171 166 163
27 26 26 23 19 15 9 5 359 350 346 342 339 331 318 302 280 263 260 261 263 265 262 263 270 271 264 259 257 258 257 254 252 250 252 252 250 249 248 248 248 243 233 227 225 226 229 229 226 224 220 217 217 216 216 213 211 214 218 216 212 204 197 200 201 194 237 239 219 220 217 211 213 218 215 217 223 201 174 180 187 179 173 170 168
29 27 26 23 19 15 10 6 1 353 347 342 339 335 330 321 307 285 268 271 271 265 262 269 275 272 266 260 257 258 257 253 250 250 249 247 247 248 247 249 247 243 238 234 230 224 225 229 225 219 215 215 216 218 219 220 221 218 209 209 213 210 210 223 222 205 226 242 222 206 200 202 213 221 218 218 221 200 178 183 192 186 177 176 176
32 29 29 28 23 19 14 10 6 357 348 345 340 336 334 325 314 307 295 286 281 274 271 269 265 264 265 263 259 258 258 255 251 249 247 244 244 246 247 248 246 243 241 239 235 226 225 225 219 214 212 214 215 217 220 223 225 220 210 207 210 210 211 228 234 217 221 235 240 229 198 192 204 217 215 215 217 200 186 191 200 194 184 180 177
32 29 28 27 24 21 15 11 11 4 357 353 346 337 330 324 320 314 306 302 298 287 278 273 271 273 274 272 264 258 257 256 254 252 247 244 243 244 245 244 244 242 238 235 232 227 225 220 214 211 209 210 211 215 219 222 221 224 222 214 207 207 207 215 223 214 210 217 229 236 209 197 197 203 206 208 213 204 190 196 204 197 188 185 180